COSMOS 1680

Satellite information

Favourite Embed

Satellite Type and Status

PAYLOADIN ORBIT

Key statistics

Satellite COSMOS 1680 at a glance.

Uptime

14651

Days in orbit

Revolutions

≈ 14.3

Per day

Orbit

LEO

Low Earth Orbit

Inclination

74.1

Latest

Satellite identification and parameters

Extended collection of information and parameters for COSMOS 1680.

Object identification

Identified? True

Debris? False

Object name: COSMOS 1680

International designator: 1985-079A

Object number (NORAD): 16011

Object ID (CCSDS): 16011

Country: COMMONWEALTH OF INDEPENDENT STATES (CIS)

Current information (Y/N): Y

RCS size: LARGE

Orbital parameters

Period: 100.414 minutes

Inclination: 74.0539 deg

SMA: 7156.326 km

Apoapsis: 789.663 km

Periapsis: 766.718 km

RAAN: 53.7109 deg

Eccentricy: 0.00160316

Argument of periapsis: 287.3754 deg

Mean anomaly: 72.5644 deg

Mean motion: 14.34060986 rev/day

Mean motion (dot): 0.00000236 rev/day2

B* drag term: 0.000093802635 1/REarth

Two-line elements (TLE)

Creation date: Oct. 15, 2025, 2:21 a.m.

Reference frame: TEME

Reference center: EARTH

Epoch: Oct. 14, 2025, 3:34 p.m. UTC

TLE line 0: 0 COSMOS 1680

TLE line 1: 1 16011U 85079A 25287.64870260 .00000236 00000-0 93803-4 0 9993

TLE line 2: 2 16011 74.0539 53.7109 0016032 287.3754 72.5644 14.34060986 96602

Live tracking on map

Real-time ground track for satellite COSMOS 1680.

In-orbit conjunctions

A list of the most updated potential collisions computed for object COSMOS 1680.

Target Orbit TCA Probability of collision Miss distance Type
FENGYUN 1C DEB SSO 2025-10-02 19:24:00 0.002544956 52.0 (m) DEBRIS
CZ-6A DEB SSO 2025-08-24 12:01:26 0.000437622 651.0 (m) DEBRIS
FENGYUN 1C DEB SSO 2025-07-16 18:06:04 0.0001064256 771.0 (m) DEBRIS
CZ-6A DEB SSO 2025-06-16 06:12:26 0.0002179884 711.0 (m) DEBRIS
METEOR 2-6 DEB LEO 2025-05-19 05:14:08 0.0001556221 240.0 (m) DEBRIS

Associated space launch

Military communications satellite

COSMOS 1680 was lifted into orbit during the mission ‘Kosmos-3M | Strela-2M 37’, on board a Kosmos-3M space rocket.

The launch took place on Sept. 4, 1985, 7:05 a.m. from 132/1 (132L).

For more information about the launch, click the button.

Launch to space Kosmos-3M | Strela-2M 37
Kosmos-3M | Strela-2M 37

Agency: N/A

Status: Launch Successful

Launch date: Sept. 4, 1985, 7:05 a.m. UTC

Rocket: Kosmos-3M

Launch pad: 132/1 (132L)

Location: Plesetsk Cosmodrome, Russian Federation

...

Latest news about this satellite

There are no fresh news available about this satellite. Check back as we update our databases every day.


Newsletter sign-up

Weekly statistics, charts and insights to help you stay on top of the space industry.